Terminal Aerodrome Forecast
Issued by NWS

Home | Current Version | Previous Version | Text Only | Print | Product List | Glossary On
Versions: 1 2 3 4 5 6 7 8 9 10 11 12 13 14 15 16 17 18 19 20 21 22 23 24
000
FTUS44 KSJT 210858 AAA
TAFJCT
TAF AMD
KJCT 210858Z 2109/2206 18009KT P6SM BKN015
     FM211200 18007KT 6SM BR BKN005
     FM211600 21007KT P6SM BKN008
     FM211800 26012G20KT P6SM SCT012
     FM220000 27007KT P6SM SKC=

USA.gov is the U.S. government's official web portal to all federal, state and local government web resources and services.